TimeEST,TemperatureF,Dew PointF,Humidity,Sea Level PressureIn,VisibilityMPH,Wind Direction,Wind SpeedMPH,Gust SpeedMPH,PrecipitationIn,Events,Conditions,WindDirDegrees,DateUTC
12:15 AM,46.4,46.4,100,30.04,5.0,Calm,Calm,-,N/A,,Overcast,0,2012-12-08 05:15:00
12:35 AM,46.4,46.4,100,30.04,5.0,Calm,Calm,-,N/A,,Overcast,0,2012-12-08 05:35:00
12:55 AM,48.2,48.2,100,30.04,5.0,Calm,Calm,-,N/A,,Overcast,0,2012-12-08 05:55:00
1:15 AM,48.2,48.2,100,30.04,5.0,NNW,3.5,-,N/A,,Overcast,330,2012-12-08 06:15:00
1:35 AM,48.2,48.2,100,30.04,5.0,Calm,Calm,-,N/A,,Overcast,0,2012-12-08 06:35:00
1:55 AM,48.2,48.2,100,30.04,5.0,Calm,Calm,-,N/A,,Mostly Cloudy,0,2012-12-08 06:55:00
2:15 AM,48.2,48.2,100,30.04,4.0,Calm,Calm,-,N/A,,Overcast,0,2012-12-08 07:15:00
2:35 AM,48.2,48.2,100,30.05,4.0,NW,5.8,-,N/A,,Overcast,320,2012-12-08 07:35:00
2:55 AM,48.2,48.2,100,30.04,1.2,NW,4.6,-,N/A,,Overcast,320,2012-12-08 07:55:00
3:15 AM,48.2,48.2,100,30.04,2.5,NW,4.6,-,N/A,,Overcast,310,2012-12-08 08:15:00
3:35 AM,50.0,50.0,100,30.04,0.5,Calm,Calm,-,N/A,Fog,Fog,0,2012-12-08 08:35:00
3:55 AM,50.0,50.0,100,30.03,0.2,NW,3.5,-,N/A,Fog,Fog,320,2012-12-08 08:55:00
4:15 AM,50.0,50.0,100,30.03,0.2,WNW,4.6,-,N/A,Fog,Fog,300,2012-12-08 09:15:00
4:35 AM,50.0,50.0,100,30.03,0.5,West,5.8,-,N/A,Fog,Fog,280,2012-12-08 09:35:00
4:55 AM,48.2,48.2,100,30.03,1.0,WNW,4.6,-,N/A,,Overcast,290,2012-12-08 09:55:00
5:15 AM,50.0,50.0,100,30.04,0.5,Calm,Calm,-,N/A,Fog,Fog,0,2012-12-08 10:15:00
5:35 AM,50.0,50.0,100,30.04,0.5,West,3.5,-,N/A,Fog,Fog,280,2012-12-08 10:35:00
5:55 AM,50.0,50.0,100,30.05,0.8,Calm,Calm,-,N/A,,Overcast,0,2012-12-08 10:55:00
6:15 AM,50.0,50.0,100,30.05,0.8,NW,4.6,-,N/A,,Overcast,320,2012-12-08 11:15:00
6:35 AM,50.0,50.0,100,30.06,0.5,NNW,3.5,-,N/A,Fog,Fog,330,2012-12-08 11:35:00
6:55 AM,50.0,50.0,100,30.06,1.0,WNW,4.6,-,N/A,,Overcast,300,2012-12-08 11:55:00
7:15 AM,50.0,50.0,100,30.07,1.2,WNW,3.5,-,N/A,,Overcast,290,2012-12-08 12:15:00
7:35 AM,50.0,50.0,100,30.06,0.5,Calm,Calm,-,N/A,Fog,Fog,0,2012-12-08 12:35:00
7:55 AM,50.0,50.0,100,30.06,0.5,Calm,Calm,-,N/A,Fog,Fog,0,2012-12-08 12:55:00
8:15 AM,50.0,50.0,100,30.07,0.5,Calm,Calm,-,N/A,Fog,Fog,0,2012-12-08 13:15:00
8:35 AM,50.0,50.0,100,30.08,1.2,Calm,Calm,-,N/A,,Overcast,0,2012-12-08 13:35:00
8:55 AM,50.0,50.0,100,30.09,0.8,WSW,3.5,-,N/A,,Overcast,240,2012-12-08 13:55:00
9:15 AM,50.0,50.0,100,30.09,1.5,Calm,Calm,-,N/A,,Overcast,0,2012-12-08 14:15:00
9:35 AM,50.0,50.0,100,30.10,4.0,Calm,Calm,-,N/A,,Overcast,0,2012-12-08 14:35:00
9:55 AM,50.0,50.0,100,30.10,5.0,Calm,Calm,-,N/A,,Overcast,0,2012-12-08 14:55:00
10:15 AM,51.8,51.8,100,30.10,8.0,Calm,Calm,-,N/A,,Overcast,0,2012-12-08 15:15:00
10:35 AM,53.6,53.6,100,30.10,10.0,Calm,Calm,-,N/A,,Scattered Clouds,0,2012-12-08 15:35:00
10:55 AM,55.4,51.8,88,30.10,10.0,Calm,Calm,-,N/A,,Clear,0,2012-12-08 15:55:00
11:15 AM,57.2,50.0,77,30.10,10.0,WSW,5.8,-,N/A,,Clear,250,2012-12-08 16:15:00
11:35 AM,59.0,50.0,72,30.08,10.0,Calm,Calm,-,N/A,,Clear,0,2012-12-08 16:35:00
11:55 AM,62.6,51.8,68,30.08,10.0,WSW,3.5,-,N/A,,Clear,250,2012-12-08 16:55:00
12:15 PM,62.6,51.8,68,30.06,10.0,West,4.6,-,N/A,,Clear,260,2012-12-08 17:15:00
12:35 PM,64.4,51.8,64,30.06,10.0,West,4.6,-,N/A,,Clear,260,2012-12-08 17:35:00
12:55 PM,66.2,53.6,64,30.04,10.0,Calm,Calm,-,N/A,,Clear,0,2012-12-08 17:55:00
1:15 PM,68.0,53.6,60,30.04,10.0,West,5.8,-,N/A,,Clear,260,2012-12-08 18:15:00
1:35 PM,68.0,53.6,60,30.03,10.0,WSW,3.5,-,N/A,,Clear,250,2012-12-08 18:35:00
1:55 PM,68.0,53.6,60,30.03,10.0,SW,3.5,-,N/A,,Clear,220,2012-12-08 18:55:00
2:15 PM,68.0,53.6,60,30.02,10.0,West,5.8,-,N/A,,Clear,280,2012-12-08 19:15:00
2:35 PM,69.8,53.6,56,30.02,7.0,SW,3.5,-,N/A,,Clear,220,2012-12-08 19:35:00
2:55 PM,69.8,53.6,56,30.02,10.0,West,4.6,-,N/A,,Scattered Clouds,280,2012-12-08 19:55:00
3:15 PM,71.6,55.4,57,30.02,10.0,Calm,Calm,-,N/A,,Mostly Cloudy,0,2012-12-08 20:15:00
3:35 PM,71.6,55.4,57,30.03,10.0,SW,6.9,-,N/A,,Partly Cloudy,230,2012-12-08 20:35:00
3:55 PM,71.6,53.6,53,30.03,10.0,WSW,3.5,-,N/A,,Clear,250,2012-12-08 20:55:00
4:15 PM,69.8,53.6,56,30.04,10.0,Calm,Calm,-,N/A,,Clear,0,2012-12-08 21:15:00
4:35 PM,68.0,53.6,60,30.04,10.0,Calm,Calm,-,N/A,,Clear,0,2012-12-08 21:35:00
4:55 PM,66.2,55.4,68,30.04,10.0,Calm,Calm,-,N/A,,Clear,0,2012-12-08 21:55:00
5:15 PM,60.8,55.4,82,30.04,10.0,Calm,Calm,-,N/A,,Clear,0,2012-12-08 22:15:00
5:35 PM,62.6,53.6,72,30.05,10.0,South,4.6,-,N/A,,Clear,190,2012-12-08 22:35:00
5:55 PM,60.8,53.6,77,30.05,10.0,SSE,4.6,-,N/A,,Scattered Clouds,160,2012-12-08 22:55:00
6:15 PM,60.8,53.6,77,30.06,10.0,South,4.6,-,N/A,,Partly Cloudy,180,2012-12-08 23:15:00
6:35 PM,59.0,53.6,82,30.06,10.0,South,4.6,-,N/A,,Clear,170,2012-12-08 23:35:00
6:55 PM,59.0,53.6,82,30.06,10.0,SSE,4.6,-,N/A,,Clear,160,2012-12-08 23:55:00
7:15 PM,57.2,53.6,88,30.06,10.0,South,4.6,-,N/A,,Clear,180,2012-12-09 00:15:00
7:35 PM,57.2,53.6,88,30.07,10.0,Calm,Calm,-,N/A,,Clear,0,2012-12-09 00:35:00
7:55 PM,55.4,53.6,94,30.07,10.0,Calm,Calm,-,N/A,,Clear,0,2012-12-09 00:55:00
8:15 PM,57.2,55.4,94,30.08,10.0,SSW,3.5,-,N/A,,Clear,200,2012-12-09 01:15:00
8:55 PM,57.2,55.4,94,30.08,10.0,SSW,3.5,-,N/A,,Clear,200,2012-12-09 01:55:00
9:15 PM,57.2,55.4,94,30.08,10.0,South,4.6,-,N/A,,Clear,190,2012-12-09 02:15:00
9:35 PM,55.4,53.6,94,30.09,10.0,Calm,Calm,-,N/A,,Clear,0,2012-12-09 02:35:00
9:55 PM,51.8,51.8,100,30.09,9.0,Calm,Calm,-,N/A,,Clear,0,2012-12-09 02:55:00
10:15 PM,50.0,50.0,100,30.09,5.0,Calm,Calm,-,N/A,,Clear,0,2012-12-09 03:15:00
10:35 PM,50.0,50.0,100,30.10,5.0,Calm,Calm,-,N/A,,Clear,0,2012-12-09 03:35:00
10:55 PM,50.0,50.0,100,30.10,4.0,Calm,Calm,-,N/A,,Clear,0,2012-12-09 03:55:00
11:15 PM,48.2,48.2,100,30.10,4.0,Calm,Calm,-,N/A,,Clear,0,2012-12-09 04:15:00
11:35 PM,48.2,48.2,100,30.10,4.0,Calm,Calm,-,N/A,,Clear,0,2012-12-09 04:35:00
11:55 PM,48.2,48.2,100,30.10,5.0,Calm,Calm,-,N/A,,Clear,0,2012-12-09 04:55:00